Voltar ao catálogo

STARLINK-1810

AtivoComunicaçõesVLEO
NORAD 46709·PAYLOAD·🇺🇸 United States

Lançado Oct 18, 2020 de Cape Canaveral Space Force Station

Loading…

Próximas Passagens (próximas 24 horas)

TLE

AtualizadoSource: CelesTrak SupGP

Época: Sep 15, 2026, 02:52 UTC

1 46709C 20073AR  26258.11993056  .00294100  00000+0  95441-3 0  2584
2 46709  53.0293  22.1135 0007493 325.4639  91.9376 15.89835378    12

Acompanhe STARLINK-1810 em tempo real com AllMySat

Download on the App Store